Regional Weather Roundup
Issued by NWS

Home | Current Version | Previous Version | Text Only | Print | Product List | Glossary Off
Versions: 1 2 3 4 5 6 7 8 9 10 11 12 13 14 15 16 17 18 19 20 21 22 23 24 25 26 27

000
ASUS45 KBOI 280410
RWRID

IDAHO REGIONAL WEATHER ROUNDUP
NATIONAL WEATHER SERVICE BOISE ID
1000 PM MDT SAT AUG 27 2016

NOTE: "FAIR" INDICATES FEW OR NO CLOUDS BELOW 12000 FEET
WITH NO SIGNIFICANT WEATHER AND/OR OBSTRUCTIONS TO VISIBILITY

IDZ012-014-280500-
SOUTHWEST IDAHO


CITY           SKY/WX    TMP DP  RH WIND       PRES   REMARKS
BOISE          CLEAR     75  29  18 S5        29.86R
CALDWELL       CLEAR     71  48  43 SE6       29.84R
MOUNTAIN HOME  CLEAR     76  32  20 NE2       29.88R
$$

IDZ016-017-280500-
SOUTHCENTRAL IDAHO


CITY           SKY/WX    TMP DP  RH WIND       PRES   REMARKS
BURLEY         CLEAR     60  46  59 CALM      29.97R
JEROME         CLEAR     66  38  35 E8        29.98R
TWIN FALLS     CLEAR     59  39  47 SE6       29.98R
$$

IDZ019>023-280500-
SOUTHEAST IDAHO


CITY           SKY/WX    TMP DP  RH WIND       PRES   REMARKS
IDAHO FALLS    CLEAR     70  32  24 S10       30.00R
POCATELLO      CLOUDY    65  29  25 S13       30.00R
REXBURG        CLEAR     68  30  24 S13       30.00R
$$

IDZ006-010-011-018-031-032-280500-
CENTRAL IDAHO MOUNTAINS


CITY           SKY/WX    TMP DP  RH WIND       PRES   REMARKS
MCCALL         PTCLDY    66  32  28 NE3       30.01R
HAILEY         CLEAR     68  28  22 NW6       30.05
STANLEY          N/A     53  24  32 S5        30.13R
SALMON         CLOUDY    72  32  23 S8        29.88R
CHALLIS        CLOUDY    69  23  17 SW9       30.00R HAZE
$$

IDZ002-004-006-007-026-280500-
NORTHERN IDAHO


CITY           SKY/WX    TMP DP  RH WIND       PRES   REMARKS
LEWISTON       CLOUDY    83  42  23 W9        29.78R
LOWELL           N/A     69  51  52 CALM      29.80R
COEUR D`ALENE  CLOUDY    73  46  38 SW9       29.77R
MULLAN PASS    MOCLDY    59  37  44 SW9G17    29.97R
$$




USA.gov is the U.S. government's official web portal to all federal, state and local government web resources and services.